Weather History for Hobbs, NM

Change the Weather History Date:

Saturday, January 26, 2013

  Actual Average Record
Temperature  
Mean Temperature 54 °F -  
Max Temperature 68 °F 57 °F 79 °F (1953)
Min Temperature 39 °F 30 °F 20 °F (1957)
Degree Days  
Heating Degree Days 12    
Growing Degree Days 4 (Base 50)    
Moisture  
Dew Point 40 °F    
Average Humidity 62    
Maximum Humidity 88    
Minimum Humidity 35    
Precipitation  
Precipitation 0.00 in - - ()
Sea Level Pressure  
Sea Level Pressure 30.06 in    
Wind  
Wind Speed 4 mph (SE)    
Max Wind Speed 15 mph    
Max Gust Speed 18 mph    
Visibility 10 miles    
Events Rain    
Averages and records for this station are not official NWS values.
T = Trace of Precipitation, MM = Missing Value Source: NWS Daily Summary

Daily Weather History Graph

Daily Weather History Graph

Search for Another Location

Airport:

Trip Planner

Search our weather history database for the weather conditions in past years. The results will help you decide how hot, cold, wet, or windy it might be!

Date:

Astronomy

Jan. 26, 2013 Rise Set
Actual Time 6:51 AM MST 5:20 PM MST
Civil Twilight 6:24 AM MST 5:46 PM MST
Nautical Twilight 5:55 AM MST 6:16 PM MST
Astronomical Twilight 5:25 AM MST 6:45 PM MST
Moon 5:14 PM MST (1/26) 6:12 AM MST (1/26)
Length of Visible Light 11h 21m
Length of Day
10h 29m
Full, 100% of the Moon is Illuminated
Jan 26
Full
Jan 26
Full
Feb 3
Last Quarter
Feb 10
New
Feb 17
First Quarter

Hourly Weather History & Observations

Time (MST) Temp. Windchill Dew Point Humidity Pressure Visibility Wind Dir Wind Speed Gust Speed Precip Events Conditions
12:15 AM 46.4 °F - 32.0 °F 57% 30.17 in 10.0 mi Calm Calm - N/A   Overcast
12:35 AM 46.4 °F 45.2 °F 32.0 °F 57% 30.17 in 10.0 mi East 3.5 mph - N/A   Overcast
12:55 AM 46.4 °F 45.2 °F 32.0 °F 57% 30.16 in 10.0 mi East 3.5 mph - N/A   Mostly Cloudy
1:15 AM 46.4 °F 44.3 °F 32.0 °F 57% 30.15 in 10.0 mi ENE 4.6 mph - N/A   Mostly Cloudy
1:35 AM 46.4 °F 44.3 °F 32.0 °F 57% 30.15 in 10.0 mi NE 4.6 mph - N/A   Partly Cloudy
1:55 AM 44.6 °F 43.1 °F 32.0 °F 61% 30.16 in 10.0 mi NE 3.5 mph - N/A   Partly Cloudy
2:15 AM 44.6 °F 41.4 °F 32.0 °F 61% 30.15 in 10.0 mi ENE 5.8 mph - N/A   Clear
2:35 AM 44.6 °F 43.1 °F 33.8 °F 66% 30.14 in 10.0 mi NE 3.5 mph - N/A   Clear
2:55 AM 42.8 °F - 33.8 °F 70% 30.14 in 10.0 mi Calm Calm - N/A   Clear
3:15 AM 44.6 °F 43.1 °F 33.8 °F 66% 30.14 in 10.0 mi East 3.5 mph - N/A   Clear
3:35 AM 41.0 °F - 32.0 °F 70% 30.14 in 10.0 mi Calm Calm - N/A   Clear
3:55 AM 39.2 °F - 32.0 °F 75% 30.14 in 10.0 mi Calm Calm - N/A   Partly Cloudy
5:50 AM 41.0 °F - 35.6 °F 81% 30.13 in 10.0 mi Calm Calm - N/A   Mostly Cloudy
6:50 AM 41.0 °F - 35.6 °F 81% 30.13 in 10.0 mi Calm Calm - N/A   Scattered Clouds
8:45 AM 48.2 °F - 33.8 °F 58% 30.13 in 10.0 mi East 6.9 mph - N/A   Clear
9:50 AM 53.6 °F - 35.6 °F 51% 30.12 in 10.0 mi ESE 10.4 mph - N/A   Clear
10:50 AM 60.8 °F - 39.2 °F 45% 30.10 in 10.0 mi SE 10.4 mph - N/A   Clear
11:50 AM 64.4 °F - 39.2 °F 40% 30.08 in 10.0 mi SSE 15.0 mph 18.4 mph N/A   Clear
12:50 PM 66.2 °F - 41.0 °F 40% 30.03 in 10.0 mi South 10.4 mph - N/A   Clear
1:50 PM 68.0 °F - 39.2 °F 35% 30.01 in 10.0 mi South 11.5 mph - N/A   Mostly Cloudy
2:50 PM 66.2 °F - 39.2 °F 37% 30.01 in 10.0 mi South 11.5 mph - N/A   Mostly Cloudy
3:50 PM 64.4 °F - 39.2 °F 40% 30.00 in 10.0 mi SSE 11.5 mph - N/A   Mostly Cloudy
4:50 PM 62.6 °F - 41.0 °F 45% 29.98 in 10.0 mi SE 9.2 mph - N/A   Mostly Cloudy
5:15 PM 62.6 °F - 41.0 °F 45% 29.99 in 10.0 mi SSE 8.1 mph - N/A   Scattered Clouds
5:35 PM 60.8 °F - 44.6 °F 55% 29.97 in 10.0 mi ESE 8.1 mph - N/A Rain Light Rain
5:50 PM 59.0 °F - 44.6 °F 59% 29.96 in 10.0 mi East 10.4 mph - N/A   Mostly Cloudy
5:55 PM 59.0 °F - 44.6 °F 59% 29.97 in 10.0 mi ESE 8.1 mph - N/A   Clear
6:15 PM 59.0 °F - 44.6 °F 59% 29.98 in 10.0 mi SE 4.6 mph - N/A   Clear
6:35 PM 59.0 °F - 44.6 °F 59% 30.00 in 9.0 mi South 4.6 mph - N/A   Clear
6:55 PM 57.2 °F - 44.6 °F 63% 30.00 in 10.0 mi SSW 5.8 mph - N/A   Partly Cloudy
7:15 PM 57.2 °F - 44.6 °F 63% 29.99 in 10.0 mi Calm Calm - N/A   Clear
7:35 PM 57.2 °F - 44.6 °F 63% 30.00 in 10.0 mi South 3.5 mph - N/A   Clear
7:55 PM 57.2 °F - 44.6 °F 63% 30.00 in 10.0 mi South 3.5 mph - N/A   Partly Cloudy
8:15 PM 57.2 °F - 44.6 °F 63% 30.01 in 10.0 mi South 3.5 mph - N/A   Partly Cloudy
8:35 PM 53.6 °F - 42.8 °F 67% 30.00 in 10.0 mi Calm Calm - N/A   Scattered Clouds
8:55 PM 51.8 °F - 42.8 °F 71% 30.00 in 10.0 mi Calm Calm - N/A   Scattered Clouds
9:15 PM 51.8 °F - 42.8 °F 71% 30.00 in 10.0 mi Calm Calm - N/A   Mostly Cloudy
9:35 PM 53.6 °F - 44.6 °F 72% 30.01 in 10.0 mi Calm Calm - N/A   Overcast
9:55 PM 53.6 °F - 42.8 °F 67% 30.01 in 10.0 mi Calm Calm - N/A   Mostly Cloudy
10:15 PM 53.6 °F - 46.4 °F 77% 30.01 in 10.0 mi SSE 5.8 mph - N/A   Mostly Cloudy
10:35 PM 53.6 °F - 44.6 °F 72% 30.01 in 10.0 mi SSE 4.6 mph - N/A   Mostly Cloudy
10:55 PM 53.6 °F - 46.4 °F 77% 30.01 in 10.0 mi South 8.1 mph - N/A   Scattered Clouds
11:15 PM 53.6 °F - 48.2 °F 82% 30.01 in 9.0 mi South 8.1 mph - N/A   Scattered Clouds
11:35 PM 51.8 °F - 48.2 °F 88% 30.01 in 8.0 mi South 6.9 mph - N/A   Scattered Clouds
11:55 PM 53.6 °F - 50.0 °F 88% 30.01 in 7.0 mi SSE 9.2 mph - N/A   Mostly Cloudy